User: anonymous   Login
Location: Unspecified
(0.0000°N, 0.0000°E)
Time: 14:06:09
(UTC+00:00)
Language:

COSMO-SKYMED 1 - Orbit

View from above orbital plane
View from above orbital plane
View from above satellite
View from above satellite

Ground track
Ground track

The orbit data is extracted from the following two-line orbital elements,

1 31598U 07023A   18115.07244447  .00000156  00000-0  26130-4 0  9994
2 31598  97.8940 299.3693 0001599  88.0708 272.0698 14.82151749588648
Epoch (UTC): 25 April 2018 01:44:19
Eccentricity: 0.0001599
inclination: 97.8940°
perigee height: 621 km
apogee height: 623 km
right ascension of ascending node: 299.3693°
argument of perigee: 88.0708°
revolutions per day: 14.82151749
mean anomaly at epoch: 272.0698°
orbit number at epoch: 58864

The dashed part of the orbit path shows where the satellite is in the earth's shadow,  

DLR